Вернуться в каталог

STARLINK-37126

АктивенСвязьVLEO
NORAD 68520·PAYLOAD·🇺🇸 United States

Запущен Mar 30, 2026 с Cape Canaveral Space Force Station

Loading…

Ближайшие Пролёты (ближайшие 24 часа)

TLE

СвежийSource: CelesTrak SupGP

Эпоха: Sep 15, 2026, 03:47 UTC

1 68520C 26068N   26258.15812500  .00044146  00000+0  13041-2 0  2585
2 68520  53.1598 324.5026 0001249  90.5365 126.7180 15.34373055    12

Отслеживайте STARLINK-37126 в реальном времени с AllMySat

Download on the App Store